Location: Bas Lanzent
(48.1360°N, 3.5871°W)
Time: 02:04:30
(UTC+00:00)

Cosmos 1934 Rocket - Pass Details

Date: 18 February 2020
Orbit: 938 x 999 km, 83.0° (Epoch: 09 April)

Event Time Altitude Azimuth Distance (km) Brightness Sun altitude
Rises 04:06:24 0° 351° (N) 3,688 7.1 -32.1°
Reaches altitude 10° 04:08:55 10° 353° (N) 2,745 6.4 -31.7°
Maximum altitude 04:15:14 81° 81° (E) 1,008 4.0 -30.7°
Enters shadow 04:17:08 49° 161° (SSE) 1,267 4.5 -30.4°
Exits shadow 04:18:47 28° 166° (SSE) 1,757 5.2 -30.2°
Drops below altitude 10° 04:21:35 10° 169° (S) 2,756 6.3 -29.7°
Sets 04:24:07 0° 170° (S) 3,704 7.0 -29.3°
